Location: Cantaing
(50.1487°N, 3.1675°E)
Time: 22:33:27
(UTC+00:00)

Cosmos 2082 Rocket - Pass Details

Date: 12 April 2026
Orbit: 831 x 853 km, 71.0° (Epoch: 19 May)

Event Time Altitude Azimuth Distance (km) Brightness Sun altitude
Exits shadow 01:43:46 17° 133° (SE) 1,998 4.0 -26.1°
Maximum altitude 01:46:04 22° 101° (E) 1,768 4.0 -25.9°
Drops below altitude 10° 01:50:21 10° 52° (NE) 2,490 5.6 -25.5°
Sets 01:53:18 0° 38° (NE) 3,432 6.7 -25.2°
